This demonstration page uses our WeatherBlox Daily Observations layout. Learn more.

Left ArrowRight Arrow

Hourly Observations for December 6, 2022

Temp ( °F °C ) Dew Point ( °F °C ) Humidity (%) Winds ( mph kmh ) Pressure ( in mb ) Visibility ( mi km ) Precip ( " mm )
12:53 am 00:53 Cloudy 40 4.4 38 3.3 93 93 NNE 13 20 29.86 1011 8 13 0.00 0.00
1:53 am 01:53 Cloudy 38 3.3 34 1.1 85 85 NNE 9 15 29.85 1011 8 13 0.00 0.00
2:53 am 02:53 Cloudy with Mist and Fog 37 2.8 34 1.1 89 89 NNE 9 15 29.85 1011 6 10 0.00 0.00
3:53 am 03:53 Cloudy 37 2.8 29 -1.7 72 72 NNE 8 13 29.86 1011 10 16 0.00 0.00
4:23 am 04:23 Cloudy 36 2.2 27 -2.8 69 69 N 9 15 29.91 1013 10 16 0.00 0.00
4:53 am 04:53 Cloudy 36 2.2 27 -2.8 69 69 N 8 13 29.89 1012 10 16 0.00 0.00
5:53 am 05:53 Cloudy 32 0 24 -4.4 72 72 N 15 24 29.91 1013 10 16 0.00 0.00
6:53 am 06:53 Cloudy 31 -0.6 24 -4.4 75 75 N 12 19 29.93 1014 10 16 0.00 0.00
7:24 am 07:24 Cloudy 32 0 24 -4.4 72 72 N 17 28 29.96 1015 10 16 0.00 0.00
7:53 am 07:53 Cloudy 32 0 24 -4.4 72 72 N 8 13 29.95 1014 10 16 0.00 0.00
8:02 am 08:02 Cloudy 32 0 24 -4.4 72 72 NNE 10 17 29.99 1016 10 16 0.00 0.00
8:53 am 08:53 Cloudy 32 0 26 -3.3 78 78 N 8 13 29.97 1015 10 16 0.00 0.00
9:53 am 09:53 Cloudy 33 0.6 25 -3.9 72 72 N 7 11 29.98 1015 10 16 0.00 0.00
10:53 am 10:53 Cloudy 35 1.7 25 -3.9 66 66 NNW 9 15 30.01 1016 10 16 0.00 0.00
11:30 am 11:30 Cloudy 37 2.8 26 -3.3 64 64 N 12 19 30.03 1017 10 16 0.00 0.00
11:53 am 11:53 Cloudy 38 3.3 27 -2.8 64 64 NNW 10 17 29.99 1016 10 16 0.00 0.00
12:18 pm 12:18 Cloudy 39 3.9 27 -2.8 62 62 NNW 9 15 30.00 1016 10 16 0.00 0.00
12:53 pm 12:53 Cloudy 40 4.4 27 -2.8 59 59 NW 7 11 29.98 1015 10 16 0.00 0.00
1:53 pm 13:53 Mostly Cloudy 44 6.7 28 -2.2 53 53 NNW 7 11 29.96 1015 10 16 0.00 0.00
2:53 pm 14:53 Partly Cloudy 47 8.3 30 -1.1 51 51 N 7 11 29.96 1015 10 16 0.00 0.00
3:53 pm 15:53 Partly Cloudy 46 7.8 30 -1.1 53 53 NNW 6 9 29.98 1015 10 16 0.00 0.00
4:53 pm 16:53 Mostly Cloudy 43 6.1 30 -1.1 60 60 NNE 6 9 30.01 1016 10 16 0.00 0.00
5:53 pm 17:53 Mostly Cloudy 43 6.1 30 -1.1 60 60 N 3 6 30.03 1017 10 16 0.00 0.00
6:53 pm 18:53 Mostly Clear 37 2.8 28 -2.2 70 70 NW 6 9 30.07 1018 10 16 0.00 0.00
7:53 pm 19:53 Partly Cloudy 37 2.8 27 -2.8 67 67 N 3 6 30.08 1019 10 16 0.00 0.00
8:53 pm 20:53 Clear 34 1.1 27 -2.8 75 75 Calm 30.09 1019 10 16 0.00 0.00
9:53 pm 21:53 Clear 33 0.6 26 -3.3 75 75 NE 3 6 30.11 1020 10 16 0.00 0.00
10:53 pm 22:53 Clear 32 0 26 -3.3 78 78 ENE 5 7 30.11 1020 10 16 0.00 0.00
11:53 pm 23:53 Clear 35 1.7 28 -2.2 75 75 NE 5 7 30.13 1020 10 16 0.00 0.00

Powered by AerisWeather